This is the latest recevied weather packets stored in our database for station/object KB9PVH-8. If no packets are shown the sender has not sent any weather packets the latest 10 day(s).
| Time | Temp. | Humidity | Pressure | Rain* | Wind** | Luminosity | Snow |
|---|---|---|---|---|---|---|---|
| 1788316841 | 25° C | - | - | 0 mm | 0 m/s | - | - |
| 1788315263 | 25° C | - | - | 0 mm | 0 m/s | - | - |
| 1788315160 | 25° C | - | - | 0 mm | 0 m/s | - | - |
| 1788314320 | 25.56° C | - | - | 0 mm | 0 m/s | - | - |
| 1788313482 | 25.56° C | - | - | 0 mm | 0 m/s | - | - |
| 1788312640 | 25.56° C | - | - | 0 mm | 0 m/s | - | - |
| 1788311801 | 25.56° C | - | - | 0 mm | 0 m/s | - | - |
| 1788311249 | 26.11° C | - | - | 0 mm | 0 m/s | - | - |
| 1788310960 | 26.11° C | - | - | 0 mm | 0 m/s | - | - |
| 1788309251 | 26.67° C | - | - | 0 mm | 0 m/s | - | - |
| 1788308504 | 26.67° C | - | - | 0 mm | 0 m/s | - | - |
| 1788308411 | 26.67° C | - | - | 0 mm | 0 m/s | - | - |
| 1788306809 | 27.78° C | - | - | 0 mm | 1.34 m/s, ° | - | - |
| 1788306730 | 27.78° C | - | - | 0 mm | 1.34 m/s, ° | - | - |
| 1788305891 | 28.33° C | - | - | 0 mm | 1.79 m/s, ° | - | - |
| 1788305226 | 28.89° C | - | - | 0 mm | 2.24 m/s, ° | - | - |
| 1788305051 | 28.89° C | - | - | 0 mm | 2.24 m/s, ° | - | - |
| 1788304212 | 28.89° C | - | - | 0 mm | 3.58 m/s, ° | - | - |
| 1788303501 | 29.44° C | - | - | 0 mm | 4.02 m/s, ° | - | - |
| 1788303371 | 29.44° C | - | - | 0 mm | 4.02 m/s, ° | - | - |
| 1788302661 | 28.33° C | - | - | 0 mm | 4.47 m/s, ° | - | - |
| 1788302531 | 28.33° C | - | - | 0 mm | 4.47 m/s, ° | - | - |
| 1788301822 | 28.33° C | - | - | 0 mm | 4.92 m/s, ° | - | - |
| 1788301691 | 28.33° C | - | - | 0 mm | 4.92 m/s, ° | - | - |
| 1788300850 | 28.89° C | - | - | 0 mm | 2.24 m/s, ° | - | - |
* Rain latest hour (hover to see other rain measurements)
** Current wind speed in m/s (hover to see current wind gust speed)